Regional Weather Roundup
Issued by NWS Upton, NY

Current Version | Previous Version | Text Only | Print | Product List | Glossary On
Versions: 1 2 3 4 5 6 7 8 9 10 11 12 13 14 15 16 17 18 19 20 21 22 23 24 25 26 27 28 29 30 31 32 33 34 35 36 37 38 39 40 41 42 43 44 45 46 47 48 49 50
000 ASUS41 KOKX 251708 RWROKX REGIONAL WEATHER ROUNDUP NATIONAL WEATHER SERVICE NEW YORK NY 100 PM EDT MON MAY 25 2015 NOTE: "FAIR" INDICATES FEW OR NO CLOUDS BELOW 12,000 FEET WITH NO SIGNIFICANT WEATHER AND/OR OBSTRUCTIONS TO VISIBILITY. NYZ071-072-176-178-NJZ106-104-251800- NEW YORK CITY METRO AREA CITY SKY/WX TMP DP RH WIND PRES REMARKS CENTRAL PARK MOSUNNY 84 57 39 MISG 30.24F LAGUARDIA APRT MOSUNNY 81 57 43 S13 30.22F KENNEDY INTL MOSUNNY 75 58 55 S9 30.25F NEWARK/LIBERTY MOSUNNY 84 57 39 S12G24 30.21F BRNX BOT. GARD N/A 82 55 39 SW9 30.21F TETERBORO MOSUNNY 84 55 36 SW10 30.20F $$ NYZ177-179-078>081-251800- LONG ISLAND NEW YORK CITY SKY/WX TMP DP RH WIND PRES REMARKS FARMINGDALE SUNNY 73 60 63 S8 30.25F ISLIP MOSUNNY 72 58 61 S10 30.24F SHIRLEY SUNNY 71 57 61 S12 30.27F WESTHAMPTON SUNNY 68 57 68 SW10 30.29S MONTAUK POINT N/A 66 56 70 S9 30.29F $$ NYZ052-065-067-251800- HUDSON VALLEY CITY SKY/WX TMP DP RH WIND PRES REMARKS WHITE PLAINS MOSUNNY 81 58 45 SE10G18 30.22F NEWBURGH MOSUNNY 81 64 57 VRB6 30.20F MONTGOMERY SUNNY 84 58 40 S13 30.17F POUGHKEEPSIE MOSUNNY 81 59 47 S7 30.17F ALBANY CLOUDY 76 50 40 S12G18 30.17F $$ NJZ001-105-106-008-010-013-015-019>022-104-251800- NEW JERSEY CITY SKY/WX TMP DP RH WIND PRES REMARKS NEWARK/LIBERTY MOSUNNY 84 57 39 S12G24 30.21F TETERBORO MOSUNNY 84 55 36 SW10 30.20F CALDWELL SUNNY 83 54 36 S9 30.21F MORRISTOWN MOSUNNY 82 57 42 W10G16 30.21F SOMERVILLE SUNNY 84 58 40 S6 30.19F SUSSEX SUNNY 83 58 42 W8 30.21F ANDOVER N/A 82 57 42 SW10G18 30.21F TRENTON SUNNY 84 57 39 S17G23 30.23F MILLVILLE SUNNY 82 60 47 SW8 30.27F ATLANTIC CITY SUNNY 83 57 41 S18G26 30.26F WRIGHTSTOWN SUNNY 85 56 36 W16G22 30.21F TOMS RIVER SUNNY N/A N/A N/A SW14 30.24S BELMAR SUNNY 84 57 39 S13G22 30.24F $$ PAZ047>061-062-071-251800- EASTERN PENNSYLVANIA CITY SKY/WX TMP DP RH WIND PRES REMARKS PHILADELPHIA MOSUNNY 85 56 37 S18 30.24F ALLENTOWN SUNNY 84 57 39 SW9G21 30.20F SCRANTON MOSUNNY 85 54 34 SW13 30.18F $$ CTZ002-004>006-009-010-012-RIZ004-006-007-MAZ004-011-015-251800- SOUTHERN NEW ENGLAND IN CT CITY SKY/WX TMP DP RH WIND PRES REMARKS BRADLEY INTL PTSUNNY 77 58 51 S8 30.21F HARTFORD MOSUNNY 81 59 47 S8G22 30.21F DANBURY MOSUNNY 79 55 43 S12 30.23F WTRBRY/OXFORD NOT AVBL BRIDGEPORT MOSUNNY 69 57 65 E8 30.24F MERIDEN MOSUNNY 80 57 45 S9 30.23F NEW HAVEN MOSUNNY 76 58 53 S6 30.24F CHESTER FAIR 77 57 50 SW10 30.27S GROTON MOSUNNY 65 56 72 S9 30.27S WILLIMANTIC PTSUNNY 81 56 42 S12 30.24F IN RI CITY SKY/WX TMP DP RH WIND PRES REMARKS PROVIDENCE CLOUDY 70 57 63 SE10 30.26F BLOCK ISLAND MOSUNNY 64 54 68 SW15G21 30.29F WESTERLY PTSUNNY 68 55 63 S8 30.28F IN MA CITY SKY/WX TMP DP RH WIND PRES REMARKS BOSTON CLOUDY 78 50 37 W7 30.21F WORCESTER CLOUDY 71 52 50 SW9 30.25F WESTFIELD CLOUDY 73 57 57 S8 30.21F PROVINCETOWN CLOUDY 72 55 56 S15G22 30.25S NANTUCKET PTSUNNY 63 54 72 SW13 30.31S $$ ANZ330-335-338-340-345-350-353-355-251800- COASTAL MARINE OBSERVATIONS STATION/POSITION TIME SKY/WX TEMP WIND PRES VSBY WAVE AIR SEA DIR/SP/G HT/PER (UTC) (F) (DEG/KT/KT) (MB) (MI) (FT/S) NY HARB ENTRANCE 1650 60 57 170/ 12/ 14 1023.8 2/ 4 4S FIRE IS 1603 55 N/A 2/ 5 20S FIRE ISLAND 1650 58 56 210/ 12/ 12 1024.8 2/ 5 GREAT SOUTH BAY 1630 60 64 220/ 8/ 10 N/A 23SW MTP 1650 56 54 210/ 8/ 10 1025.5 2/ 4 HUDSON CANYON NOT AVBL KINGS POINT 1600 73 60 210/ 7/ 9 1023.3 CENTRAL LI SOUND 1600 58 56 30/ 4/ 6 N/A EASTERN LI SOUND 1600 58 160/ 6/ 8 N/A ROBBINS REEF 1600 69 170/ 16/ 16 1022.7 $$ >>>>>>>>>>>>>>>>>>>>>>>>>>>> KEY <<<<<<<<<<<<<<<<<<<<<<<<<<< > < > SKY/WX - SKY CONDITION/PRESENT WEATHER < > TMP - TEMPERATURE IN FAHRENHEIT < > DP - DEWPOINT IN FAHRENHEIT < > RH - RELATIVE HUMIDITY IN PERCENT < > WIND - DIRECTION AND SPEED IN MPH < > PRES - MEAN SEA LEVEL PRESSURE IN INCHES OF HG < > WCI - WIND CHILL INDEX < > VSB - VISIBILITY IN MILES < > HX - HEAT INDEX < > TC - TEMPERATURE IN CELSIUS < > VRB - VARIABLE WIND DIRECTION < > < >>>>>>>>>>>>>>>>>>>>>>>>>>>> KEY <<<<<<<<<<<<<<<<<<<<<<<<<<<

USA.gov is the U.S. government's official web portal to all federal, state and local government web resources and services.